Location: Newark
(18.0634°N, 63.0549°W)
Time: 11:53:54
(UTC+00:00)

OTV 5 (USA 277) - Pass Details

Date: 23 October 2019
Orbit: 310 x 324 km, 54.5° (Epoch: 17 October)

Event Time Altitude Azimuth Distance (km) Brightness Sun altitude
Rises 23:25:04 0° 230° (SW) 2,037 ? -24.4°
Reaches altitude 10° 23:27:07 10° 241° (WSW) 1,212 ? -24.9°
Enters shadow 23:27:56 17° 251° (WSW) 919 ? -25.1°
